| time (UTC) | temp F | wind direction | speed MPH | gust MPH | rain 1hr in | rain 24hr in | rain mn in | humidity % | barometer mb |
| 20260507181622 | 72 | 250 | 0.0 | 0.0 | 0.00 | 1.49 | 1.49 | 94 | 1008.8 |
| 20260507180636 | 71 | 165 | 0.0 | 0.0 | 0.00 | 1.49 | 1.49 | 94 | 1008.8 |
| 20260507175602 | 69 | 224 | 0.0 | 0.0 | 0.00 | 1.49 | 1.49 | 93 | 1008.8 |
| 20260507174552 | 69 | 248 | 0.0 | 0.0 | 0.04 | 1.49 | 1.49 | 94 | 1008.6 |
| 20260507173605 | 68 | 250 | 0.0 | 2.0 | 0.10 | 1.47 | 1.49 | 93 | 1008.5 |
| 20260507172622 | 68 | 260 | 0.0 | 0.0 | 0.05 | 1.45 | 1.48 | 93 | 1008.4 |
| 20260507171642 | 68 | 294 | 0.0 | 0.0 | 0.12 | 1.42 | 1.46 | 93 | 1009.1 |
| 20260507165522 | 68 | 294 | 0.0 | 0.0 | 0.21 | 1.37 | 1.40 | 93 | 1009.3 |
| 20260507164504 | 68 | 294 | 0.0 | 0.0 | 0.13 | 1.33 | 1.38 | 93 | 1009.3 |
| 20260507163523 | 68 | 294 | 0.0 | 0.0 | 0.13 | 1.26 | 1.35 | 93 | 1009.6 |
| 20260507162516 | 68 | 294 | 0.0 | 0.0 | 0.27 | 1.20 | 1.30 | 93 | 1009.7 |
| 20260507161444 | 68 | 292 | 0.0 | 6.0 | 0.12 | 1.18 | 1.22 | 93 | 1009.8 |
| 20260507160445 | 68 | 275 | 0.0 | 0.0 | 0.10 | 1.17 | 1.20 | 93 | 1009.8 |
| 20260507155503 | 68 | 275 | 0.0 | 0.0 | 0.13 | 1.13 | 1.18 | 93 | 1009.7 |
| 20260507154518 | 68 | 284 | 0.0 | 3.0 | 0.28 | 1.11 | 1.15 | 93 | 1009.7 |
| 20260507152331 | 68 | 275 | 1.0 | 0.0 | 4.47 | 0.87 | 1.04 | 93 | 1009.4 |
| 20260507151257 | 68 | 279 | 0.0 | 8.0 | 0.09 | 0.86 | 0.87 | 93 | 1008.5 |
| 20260507150249 | 68 | 246 | 1.0 | 16.0 | 0.23 | 0.81 | 0.87 | 93 | 1008.6 |
| 20260507145253 | 68 | 216 | 3.0 | 16.0 | 0.06 | 0.80 | 0.81 | 93 | 1008.6 |
| 20260507142033 | 68 | 160 | 2.0 | 13.0 | 0.09 | 0.72 | 0.77 | 93 | 1008.0 |
| 20260507141040 | 68 | 212 | 2.0 | 13.0 | 0.17 | 0.72 | 0.76 | 93 | 1009.4 |
| 20260507140051 | 68 | 170 | 1.0 | 9.0 | 0.31 | 0.65 | 0.72 | 93 | 1009.4 |
| 20260507135017 | 68 | 223 | 6.0 | 25.0 | 0.52 | 0.42 | 0.66 | 93 | 1009.1 |
| 20260507134036 | 68 | 200 | 3.0 | 18.0 | 0.52 | 0.42 | 0.51 | 93 | 1008.6 |
| 20260507133100 | 68 | 232 | 2.0 | 14.0 | 0.46 | 0.39 | 0.43 | 93 | 1009.5 |
| 20260507132115 | 68 | 273 | 2.0 | 14.0 | 0.15 | 0.36 | 0.38 | 93 | 1009.7 |
| 20260507131132 | 68 | 224 | 1.0 | 10.0 | 0.00 | 0.36 | 0.37 | 93 | 1008.9 |
| 20260507124957 | 68 | 309 | 1.0 | 11.0 | 0.00 | 0.36 | 0.36 | 93 | 1009.1 |
| 20260507124017 | 67 | 227 | 1.0 | 10.0 | 0.00 | 0.36 | 0.36 | 93 | 1008.9 |
| 20260507121927 | 67 | 213 | 3.0 | 15.0 | 0.00 | 0.36 | 0.36 | 93 | 1008.3 |
| 20260507120944 | 67 | 207 | 2.0 | 12.0 | 0.00 | 0.36 | 0.36 | 93 | 1008.4 |
| 20260507120002 | 67 | 200 | 1.0 | 12.0 | 0.00 | 0.36 | 0.36 | 93 | 1008.3 |
| 20260507114934 | 67 | 244 | 0.0 | 0.0 | 0.00 | 0.36 | 0.36 | 93 | 1007.9 |
| 20260507113923 | 67 | 279 | 0.0 | 8.0 | 0.00 | 0.36 | 0.36 | 93 | 1008.4 |
| 20260507112928 | 66 | 202 | 3.0 | 22.0 | 0.00 | 0.36 | 0.36 | 93 | 1007.0 |
| 20260507111915 | 66 | 166 | 3.0 | 22.0 | 0.05 | 0.35 | 0.36 | 93 | 1007.8 |
| 20260507110931 | 66 | 184 | 2.0 | 12.0 | 0.05 | 0.32 | 0.36 | 93 | 1008.0 |
| 20260507105950 | 67 | 191 | 1.0 | 12.0 | 0.10 | 0.32 | 0.35 | 93 | 1008.5 |
| 20260507104931 | 67 | 205 | 1.0 | 11.0 | 0.00 | 0.32 | 0.33 | 93 | 1009.1 |
| 20260507103928 | 67 | 245 | 2.0 | 0.0 | 0.00 | 0.32 | 0.33 | 93 | 1009.7 |
| 20260507102856 | 67 | 164 | 1.0 | 9.0 | 0.00 | 0.31 | 0.32 | 93 | 1009.7 |
| 20260507100738 | 67 | 165 | 0.0 | 7.0 | 0.00 | 0.31 | 0.31 | 93 | 1010.1 |
| 20260507095752 | 67 | 235 | 1.0 | 17.0 | 0.00 | 0.31 | 0.31 | 92 | 1010.0 |
| 20260507094809 | 67 | 211 | 2.0 | 13.0 | 0.00 | 0.31 | 0.31 | 92 | 1010.0 |
| 20260507093830 | 67 | 198 | 0.0 | 9.0 | 0.00 | 0.31 | 0.31 | 92 | 1010.0 |
| 20260507092810 | 67 | 242 | 0.0 | 9.0 | 0.00 | 0.31 | 0.31 | 92 | 1009.9 |
| 20260507091831 | 67 | 257 | 0.0 | 7.0 | 0.00 | 0.29 | 0.31 | 92 | 1009.9 |
| 20260507090817 | 67 | 198 | 4.0 | 17.0 | 0.08 | 0.26 | 0.31 | 92 | 1010.1 |
| 20260507085821 | 68 | 228 | 3.0 | 14.0 | 0.13 | 0.21 | 0.30 | 92 | 1010.4 |
| 20260507084752 | 68 | 197 | 3.0 | 17.0 | 0.23 | 0.14 | 0.24 | 92 | 1010.8 |
| 20260507082626 | 68 | 255 | 1.0 | 4.0 | 0.10 | 0.10 | 0.13 | 91 | 1011.1 |
| 20260507081609 | 68 | 220 | 1.0 | 7.0 | 0.13 | 0.09 | 0.12 | 91 | 1010.4 |
| 20260507075502 | 69 | 245 | 1.0 | 13.0 | 0.15 | 0.04 | 0.06 | 91 | 1010.7 |
| 20260507073354 | 70 | 209 | 0.0 | 0.0 | 0.04 | 0.02 | 0.03 | 89 | 1010.7 |
| 20260507071247 | 70 | 244 | 0.0 | 0.0 | 0.00 | 0.01 | 0.02 | 87 | 1010.2 |
| 20260507065050 | 72 | 209 | 0.0 | 0.0 | 0.00 | 0.00 | 0.01 | 82 | 1011.2 |
| 20260507061752 | 73 | 237 | 0.0 | 4.0 | 0.00 | 0.00 | 0.00 | 75 | 1010.2 |
| 20260507055636 | 73 | 208 | 0.0 | 0.0 | 0.00 | 0.00 | 0.00 | 73 | 1009.8 |
| 20260507054616 | 73 | 238 | 0.0 | 0.0 | 0.00 | 0.00 | 0.00 | 73 | 1010.0 |
| 20260507053612 | 73 | 223 | 0.0 | 2.0 | 0.00 | 0.00 | 0.00 | 73 | 1010.4 |
| 20260507052629 | 73 | 200 | 0.0 | 0.0 | 0.00 | 0.00 | 0.00 | 73 | 1010.5 |
| 20260507051653 | 73 | 199 | 0.0 | 0.0 | 0.00 | 0.00 | 0.00 | 72 | 1010.9 |
| 20260507050623 | 73 | 200 | 0.0 | 0.0 | 0.00 | 0.00 | 0.00 | 71 | 1011.5 |
| 20260507045625 | 73 | 194 | 0.0 | 0.0 | 0.00 | 0.00 | 0.00 | 70 | 1011.7 |
| 20260507043511 | 74 | 190 | 0.0 | 4.0 | 0.00 | 0.00 | 0.00 | 69 | 1011.6 |
| 20260507042530 | 75 | 246 | 0.0 | 0.0 | 0.00 | 0.00 | 0.00 | 68 | 1011.7 |
| 20260507041505 | 75 | 252 | 0.0 | 4.0 | 0.00 | 0.00 | 0.00 | 64 | 1011.7 |
| 20260507040503 | 75 | 254 | 0.0 | 0.0 | 0.00 | 0.00 | 0.00 | 64 | 1011.7 |
| 20260507035435 | 76 | 254 | 0.0 | 0.0 | 0.00 | 0.00 | 0.00 | 62 | 1011.5 |
| 20260507034447 | 76 | 254 | 0.0 | 0.0 | 0.00 | 0.00 | 0.00 | 62 | 1011.5 |
| 20260507033509 | 76 | 254 | 0.0 | 0.0 | 0.00 | 0.00 | 0.00 | 62 | 1011.5 |
| 20260507032507 | 76 | 254 | 0.0 | 0.0 | 0.00 | 0.00 | 0.00 | 61 | 1011.6 |
| 20260507031503 | 76 | 254 | 0.0 | 0.0 | 0.00 | 0.00 | 0.00 | 61 | 1012.0 |
| 20260507030433 | 77 | 257 | 0.0 | 0.0 | 0.00 | 0.00 | 0.00 | 62 | 1011.9 |
| 20260507024323 | 77 | 259 | 0.0 | 0.0 | 0.00 | 0.00 | 0.00 | 60 | 1011.4 |
| 20260507023301 | 77 | 264 | 0.0 | 0.0 | 0.00 | 0.00 | 0.00 | 59 | 1010.7 |
| 20260507022313 | 77 | 231 | 0.0 | 6.0 | 0.00 | 0.00 | 0.00 | 60 | 1010.9 |
| 20260507021301 | 77 | 239 | 0.0 | 0.0 | 0.00 | 0.00 | 0.00 | 61 | 1010.9 |
| 20260507020259 | 77 | 208 | 0.0 | 0.0 | 0.00 | 0.00 | 0.00 | 61 | 1010.7 |
| 20260507015314 | 77 | 286 | 0.0 | 0.0 | 0.00 | 0.00 | 0.00 | 63 | 1010.8 |
| 20260507014240 | 76 | 202 | 0.0 | 8.0 | 0.00 | 0.00 | 0.00 | 62 | 1010.6 |
| 20260507013227 | 76 | 189 | 1.0 | 5.0 | 0.00 | 0.00 | 0.00 | 64 | 1010.6 |
| 20260507012210 | 77 | 217 | 1.0 | 7.0 | 0.00 | 0.00 | 0.00 | 65 | 1010.1 |
| 20260507011159 | 77 | 193 | 1.0 | 5.0 | 0.00 | 0.00 | 0.00 | 65 | 1010.1 |
| 20260507010135 | 78 | 206 | 0.0 | 2.0 | 0.00 | 0.00 | 0.00 | 62 | 1010.6 |
| 20260507002902 | 80 | 206 | 0.0 | 3.0 | 0.00 | 0.00 | 0.00 | 57 | 1010.6 |
| 20260507001854 | 81 | 207 | 0.0 | 10.0 | 0.00 | 0.00 | 0.00 | 56 | 1010.7 |
| 20260507000906 | 82 | 196 | 1.0 | 10.0 | 0.00 | 0.00 | 0.00 | 55 | 1010.7 |
| 20260506235927 | 82 | 200 | 1.0 | 11.0 | 0.00 | 0.00 | 0.00 | 54 | 1010.8 |
| 20260506234858 | 82 | 182 | 1.0 | 11.0 | 0.00 | 0.00 | 0.00 | 54 | 1011.0 |
| 20260506233850 | 83 | 188 | 2.0 | 11.0 | 0.00 | 0.00 | 0.00 | 54 | 1010.9 |
| 20260506232912 | 83 | 262 | 0.0 | 7.0 | 0.00 | 0.00 | 0.00 | 55 | 1010.9 |
| 20260506231857 | 84 | 225 | 2.0 | 12.0 | 0.00 | 0.00 | 0.00 | 55 | 1010.7 |
| 20260506230906 | 84 | 185 | 2.0 | 14.0 | 0.00 | 0.00 | 0.00 | 55 | 1010.9 |
| 20260506225918 | 84 | 194 | 3.0 | 14.0 | 0.00 | 0.00 | 0.00 | 55 | 1010.7 |
| 20260506224851 | 84 | 172 | 3.0 | 11.0 | 0.00 | 0.00 | 0.00 | 55 | 1010.6 |
| 20260506223823 | 85 | 196 | 2.0 | 12.0 | 0.00 | 0.00 | 0.00 | 58 | 1010.4 |
| 20260506221651 | 86 | 200 | 2.0 | 10.0 | 0.00 | 0.00 | 0.00 | 50 | 1010.4 |
| 20260506220629 | 86 | 202 | 2.0 | 10.0 | 0.00 | 0.00 | 0.00 | 50 | 1010.6 |
| 20260506214518 | 87 | 207 | 3.0 | 12.0 | 0.00 | 0.00 | 0.00 | 47 | 1011.1 |
| 20260506213541 | 87 | 223 | 1.0 | 17.0 | 0.00 | 0.00 | 0.00 | 47 | 1011.0 |
| 20260506212544 | 87 | 273 | 2.0 | 17.0 | 0.00 | 0.00 | 0.00 | 46 | 1011.0 |
| 20260506211516 | 88 | 195 | 3.0 | 13.0 | 0.00 | 0.00 | 0.00 | 45 | 1010.9 |
| 20260506210529 | 88 | 197 | 2.0 | 12.0 | 0.00 | 0.00 | 0.00 | 46 | 1011.0 |
| 20260506205549 | 89 | 251 | 2.0 | 12.0 | 0.00 | 0.00 | 0.00 | 43 | 1011.0 |
| 20260506204558 | 90 | 227 | 1.0 | 17.0 | 0.00 | 0.00 | 0.00 | 44 | 1011.2 |
| 20260506202437 | 89 | 217 | 3.0 | 13.0 | 0.00 | 0.00 | 0.00 | 45 | 1011.3 |
| 20260506201447 | 89 | 203 | 4.0 | 12.0 | 0.00 | 0.00 | 0.00 | 43 | 1011.4 |
| 20260506200419 | 89 | 162 | 2.0 | 14.0 | 0.00 | 0.00 | 0.00 | 44 | 1011.6 |
| 20260506195428 | 88 | 188 | 2.0 | 15.0 | 0.00 | 0.00 | 0.00 | 44 | 1011.9 |
| 20260506194412 | 88 | 188 | 2.0 | 15.0 | 0.00 | 0.00 | 0.00 | 45 | 1012.2 |
| 20260506191047 | 88 | 190 | 3.0 | 16.0 | 0.00 | 0.00 | 0.00 | 45 | 1012.6 |
| 20260506190059 | 87 | 211 | 3.0 | 16.0 | 0.00 | 0.00 | 0.00 | 45 | 1012.7 |
| 20260506185115 | 87 | 269 | 3.0 | 11.0 | 0.00 | 0.00 | 0.00 | 44 | 1012.6 |
| 20260506184128 | 86 | 225 | 2.0 | 16.0 | 0.00 | 0.00 | 0.00 | 45 | 1012.8 |
| 20260506183148 | 86 | 166 | 4.0 | 16.0 | 0.00 | 0.00 | 0.00 | 46 | 1012.8 |